When you browse on this site, cookies collect data to enhance your experience and personalize the content and advertising you see.
Visit our Privacy Policy to learn more. By continuing to use the site, you agree to this use of cookies and data.
  • In Sweden
  • List of Countries
  • For 7 days
  • Water Temperature
  • Satellite Maps
  • Weather Map
  • Weather Widgets
  • user-avatar
    Login

    Hourly Weather Lankaran

    Today, 19 July, Friday

    Time Temperature Precipitation Wind Pressure Humidity
    00:00 +17°C° 0 mm 0 mps 630 mmHg 56%
    01:00 +17°C° 0 mm 0 mps 630 mmHg 57%
    02:00 +17°C° 0 mm 0 mps 630 mmHg 59%
    03:00 +16°C° 0 mm 0 mps 630 mmHg 60%
    04:00 +17°C° 0 mm 0 mps 630 mmHg 58%
    05:00 +18°C° 0 mm 0 mps 631 mmHg 55%
    06:00 +21°C° 0 mm 1 mps 632 mmHg 53%
    07:00 +22°C° 0 mm 1 mps 632 mmHg 51%
    08:00 +23°C° 0 mm 2 mps 633 mmHg 48%
    09:00 +25°C° 0 mm 3 mps 634 mmHg 46%
    10:00 +25°C° 0 mm 3 mps 634 mmHg 46%
    11:00 +26°C° 0 mm 4 mps 634 mmHg 45%
    12:00 +27°C° 0 mm 4 mps 634 mmHg 45%
    13:00 +27°C° 0 mm 4 mps 633 mmHg 45%
    14:00 +26°C° 0 mm 4 mps 633 mmHg 45%
    15:00 +26°C° 0 mm 5 mps 633 mmHg 45%
    16:00 +25°C° 0 mm 4 mps 632 mmHg 48%
    17:00 +22°C° 0 mm 4 mps 632 mmHg 51%
    18:00 +21°C° 0 mm 3 mps 632 mmHg 54%
    19:00 +20°C° 0 mm 3 mps 632 mmHg 58%
    20:00 +18°C° 0 mm 2 mps 632 mmHg 61%
    21:00 +17°C° 0 mm 2 mps 633 mmHg 65%
    22:00 +17°C° 0 mm 2 mps 633 mmHg 65%
    23:00 +17°C° 0 mm 2 mps 633 mmHg 65%

    Tomorrow, 20 July, Saturday

    Time Temperature Precipitation Wind Pressure Humidity
    00:00 +17°C° 0 mm 2 mps 633 mmHg 65%
    01:00 +16°C° 0 mm 2 mps 633 mmHg 65%
    02:00 +16°C° 0 mm 2 mps 633 mmHg 65%
    03:00 +16°C° 0 mm 2 mps 633 mmHg 66%
    04:00 +17°C° 0 mm 2 mps 634 mmHg 63%
    05:00 +17°C° 0 mm 2 mps 635 mmHg 61%
    06:00 +18°C° 0 mm 2 mps 635 mmHg 59%
    07:00 +19°C° 0 mm 2 mps 636 mmHg 54%
    08:00 +21°C° 0 mm 3 mps 637 mmHg 49%
    09:00 +23°C° 0 mm 4 mps 637 mmHg 44%
    10:00 +25°C° 0 mm 4 mps 638 mmHg 42%
    11:00 +25°C° 0 mm 4 mps 638 mmHg 40%
    12:00 +26°C° 0 mm 5 mps 638 mmHg 38%
    13:00 +26°C° 0 mm 5 mps 638 mmHg 39%
    14:00 +26°C° 0 mm 5 mps 637 mmHg 40%
    15:00 +25°C° 0 mm 5 mps 637 mmHg 41%
    16:00 +23°C° 0 mm 4 mps 637 mmHg 45%
    17:00 +22°C° 0 mm 4 mps 636 mmHg 49%
    18:00 +20°C° 0 mm 3 mps 636 mmHg 53%
    19:00 +19°C° 0 mm 3 mps 636 mmHg 58%
    20:00 +18°C° 0 mm 2 mps 636 mmHg 64%
    21:00 +16°C° 0 mm 2 mps 636 mmHg 69%
    22:00 +16°C° 0 mm 2 mps 636 mmHg 68%
    23:00 +16°C° 0 mm 2 mps 636 mmHg 67%

    Day after tomorrow, 21 July, Sunday

    Time Temperature Precipitation Wind Pressure Humidity
    00:00 +16°C° 0 mm 1 mps 636 mmHg 66%
    01:00 +16°C° 0 mm 1 mps 636 mmHg 66%
    02:00 +16°C° 0 mm 1 mps 636 mmHg 66%
    03:00 +16°C° 0 mm 1 mps 636 mmHg 66%
    04:00 +16°C° 0 mm 1 mps 637 mmHg 63%
    05:00 +18°C° 0 mm 1 mps 637 mmHg 61%
    06:00 +19°C° 0 mm 1 mps 637 mmHg 59%
    07:00 +20°C° 0 mm 2 mps 638 mmHg 54%
    08:00 +21°C° 0 mm 2 mps 639 mmHg 49%
    09:00 +24°C° 0 mm 3 mps 639 mmHg 44%
    10:00 +25°C° 0 mm 3 mps 639 mmHg 42%
    11:00 +26°C° 0 mm 4 mps 639 mmHg 41%
    12:00 +27°C° 0 mm 4 mps 639 mmHg 39%
    13:00 +27°C° 0 mm 4 mps 638 mmHg 39%
    14:00 +27°C° 0 mm 4 mps 637 mmHg 40%
    15:00 +27°C° 0 mm 4 mps 637 mmHg 40%
    16:00 +26°C° 0 mm 3 mps 636 mmHg 44%
    17:00 +25°C° 0 mm 3 mps 636 mmHg 48%
    18:00 +24°C° 0 mm 2 mps 635 mmHg 51%
    19:00 +21°C° 0 mm 2 mps 635 mmHg 54%
    20:00 +21°C° 0 mm 1 mps 635 mmHg 57%
    21:00 +17°C° 0 mm 0 mps 635 mmHg 60%
    22:00 +17°C° 0 mm 0 mps 635 mmHg 58%
    23:00 +17°C° 0 mm 0 mps 635 mmHg 57%

    22 July, Monday

    Time Temperature Precipitation Wind Pressure Humidity
    00:00 +17°C° 0 mm 0 mps 634 mmHg 56%
    01:00 +17°C° 0 mm 0 mps 634 mmHg 57%
    02:00 +16°C° 0 mm 0 mps 634 mmHg 57%
    03:00 +16°C° 0 mm 0 mps 633 mmHg 58%
    04:00 +17°C° 0 mm 0 mps 634 mmHg 56%
    05:00 +20°C° 0 mm 1 mps 634 mmHg 53%
    06:00 +21°C° 0 mm 1 mps 635 mmHg 51%
    07:00 +22°C° 0 mm 1 mps 635 mmHg 47%
    08:00 +24°C° 0 mm 2 mps 636 mmHg 43%
    09:00 +26°C° 0 mm 3 mps 636 mmHg 40%
    10:00 +27°C° 0 mm 3 mps 636 mmHg 39%
    11:00 +28°C° 0 mm 3 mps 636 mmHg 37%
    12:00 +29°C° 0 mm 4 mps 636 mmHg 36%
    13:00 +29°C° 0 mm 4 mps 635 mmHg 37%
    14:00 +29°C° 0 mm 4 mps 635 mmHg 37%
    15:00 +29°C° 0 mm 4 mps 634 mmHg 38%
    16:00 +27°C° 0 mm 3 mps 634 mmHg 41%
    17:00 +26°C° 0 mm 2 mps 633 mmHg 44%
    18:00 +25°C° 0 mm 2 mps 633 mmHg 47%
    19:00 +24°C° 0 mm 1 mps 633 mmHg 49%
    20:00 +23°C° 0 mm 1 mps 633 mmHg 50%
    21:00 +22°C° 0 mm 1 mps 633 mmHg 51%
    22:00 +22°C° 0 mm 1 mps 632 mmHg 52%
    23:00 +22°C° 0 mm 1 mps 632 mmHg 53%

    23 July, Tuesday

    Time Temperature Precipitation Wind Pressure Humidity
    00:00 +21°C° 0 mm 1 mps 632 mmHg 54%
    01:00 +21°C° 0 mm 1 mps 631 mmHg 56%
    02:00 +20°C° 0 mm 1 mps 631 mmHg 59%
    03:00 +19°C° 0 mm 1 mps 631 mmHg 61%
    04:00 +19°C° 0 mm 1 mps 631 mmHg 61%
    05:00 +20°C° 0 mm 1 mps 631 mmHg 61%
    06:00 +20°C° 0 mm 1 mps 631 mmHg 61%
    07:00 +20°C° 0 mm 2 mps 632 mmHg 57%
    08:00 +22°C° 0 mm 3 mps 632 mmHg 52%
    09:00 +24°C° 0 mm 3 mps 633 mmHg 48%
    10:00 +25°C° 0 mm 4 mps 633 mmHg 47%
    11:00 +26°C° 0 mm 4 mps 633 mmHg 46%
    12:00 +26°C° 0 mm 4 mps 633 mmHg 45%
    13:00 +26°C° 0 mm 4 mps 632 mmHg 46%
    14:00 +26°C° 0 mm 4 mps 632 mmHg 47%
    15:00 +26°C° 0 mm 4 mps 631 mmHg 49%
    16:00 +24°C° 0.1 mm 3 mps 631 mmHg 54%
    17:00 +22°C° 0.1 mm 3 mps 630 mmHg 58%
    18:00 +21°C° 0.1 mm 3 mps 630 mmHg 63%
    19:00 +20°C° 0 mm 2 mps 630 mmHg 67%
    20:00 +19°C° 0 mm 2 mps 630 mmHg 70%
    21:00 +18°C° 0 mm 1 mps 630 mmHg 74%
    22:00 +18°C° 0 mm 1 mps 630 mmHg 73%
    23:00 +18°C° 0 mm 1 mps 630 mmHg 73%

    24 July, Wednesday

    Time Temperature Precipitation Wind Pressure Humidity
    00:00 +16°C° 0 mm 1 mps 630 mmHg 72%
    01:00 +16°C° 0 mm 1 mps 630 mmHg 70%
    02:00 +15°C° 0 mm 1 mps 630 mmHg 68%
    03:00 +15°C° 0 mm 1 mps 629 mmHg 66%
    04:00 +16°C° 0 mm 1 mps 630 mmHg 62%
    05:00 +18°C° 0 mm 1 mps 630 mmHg 57%
    06:00 +17°C° 0 mm 0 mps 631 mmHg 53%
    07:00 +21°C° 0 mm 1 mps 631 mmHg 47%
    08:00 +23°C° 0 mm 1 mps 632 mmHg 41%
    09:00 +25°C° 0 mm 2 mps 633 mmHg 35%
    10:00 +26°C° 0 mm 2 mps 633 mmHg 33%
    11:00 +27°C° 0 mm 3 mps 633 mmHg 32%
    12:00 +28°C° 0 mm 3 mps 633 mmHg 30%
    13:00 +28°C° 0 mm 3 mps 632 mmHg 31%
    14:00 +28°C° 0 mm 4 mps 632 mmHg 31%
    15:00 +28°C° 0 mm 4 mps 632 mmHg 32%
    16:00 +27°C° 0 mm 3 mps 631 mmHg 35%
    17:00 +26°C° 0 mm 3 mps 631 mmHg 38%
    18:00 +24°C° 0 mm 2 mps 630 mmHg 41%
    19:00 +23°C° 0 mm 2 mps 630 mmHg 44%
    20:00 +21°C° 0 mm 1 mps 630 mmHg 47%
    21:00 +20°C° 0 mm 1 mps 630 mmHg 50%
    22:00 +20°C° 0 mm 1 mps 630 mmHg 49%
    23:00 +20°C° 0 mm 1 mps 630 mmHg 48%
    Show more